Flag for Brazil Weather past 2 weeks in Curitiba, Paraná, Brazil

Now
64 °F

Fog.


Feels Like: 64 °F
Forecast: 63 / 85 °F
Wind: 3 mph from Southeast

Location: Curitiba Aeroporto

Current Time: Dec 20, 2014 at 4:36:14 AM

Latest Report: Dec 20, 2014 at 4:00 AM


Visibility: 3 mi

Pressure: 29.89 "Hg

Humidity: 94%

Dew point: 63 °F

Location of CuritibaLocation

Historic Weather in Curitiba — Graph

°F

Curitiba temperature yesterday

Maximum temperature yesterday: 79 °F (at 1:00 PM)
Minimum temperature yesterday: 64 °F (at 10:00 PM)
Average temperature yesterday: 69 °F

Past Weeks' High & Low Weather Summary

 TemperatureHumidityPressure
High84 °F (Dec 7, 3:00 PM)100% (Dec 6, 6:00 AM)30.21 "Hg (Dec 6, 6:00 AM)
Low54 °F (Dec 17, 6:00 AM)28% (Dec 8, 1:00 PM)29.80 "Hg (Dec 13, 5:00 PM)
Average68 °F78%30.04 "Hg
* Reported Dec 5 3:00 AM — Dec 20 3:00 AM, Curitiba, Weather by CustomWeather, © 2014

Note: Actual official high and low records may vary slightly from our data, if they occured in-between our weather recording intervals... More about our weather records

Advertising

Curitiba weather history for previous 24 hours

 ConditionsComfort  
Time TempWeatherWind HumidityBarometerVisibility
3:00 AM
Dec 20
64 °FFog.6 mph94%29.92 "Hg3 mi
2:00 AM64 °FMostly cloudy.5 mph94%29.95 "HgN/A
1:00 AM64 °FMostly cloudy.5 mph94%29.95 "HgN/A
12:00 AM64 °FMostly cloudy.6 mph94%29.95 "HgN/A
11:00 PM
Dec 19
64 °FPartly cloudy.6 mph94%29.95 "HgN/A
10:00 PM64 °FPartly cloudy.2 mph94%29.92 "HgN/A
9:00 PM66 °FPartly cloudy.6 mph88%29.92 "HgN/A
8:00 PM66 °FPartly sunny.9 mph94%29.92 "Hg5 mi
7:00 PM68 °FLight rain. Partly sunny.9 mph88%N/A4 mi
6:00 PM70 °FBroken clouds.9 mph88%29.89 "HgN/A
5:00 PM72 °FPartly sunny.8 mph83%29.89 "HgN/A
4:00 PM75 °FBroken clouds.13 mph74%29.89 "HgN/A
3:00 PM75 °FPartly sunny.9 mph74%29.89 "HgN/A
2:00 PM75 °FPartly sunny.12 mph69%29.92 "HgN/A
1:00 PM79 °FPartly sunny.6 mph54%29.95 "HgN/A
12:00 PM75 °FPartly sunny.3 mph65%29.98 "HgN/A
11:00 AM75 °FPartly sunny.5 mph74%29.98 "HgN/A
10:00 AM70 °FPartly sunny.3 mph78%29.98 "HgN/A
9:00 AM68 °FPartly sunny.5 mph88%29.98 "HgN/A
8:00 AM66 °FPartly sunny.5 mph94%29.95 "HgN/A
7:00 AM66 °FMostly cloudy.5 mph94%29.95 "HgN/A
6:00 AM66 °FLow clouds.3 mph94%29.95 "HgN/A
5:00 AM66 °FLow clouds.3 mph94%29.95 "HgN/A
4:00 AM66 °FLow clouds.7 mph94%29.95 "HgN/A
Weather by CustomWeather, © 2014

See weather overviewHow to use our weather pages